Hlavní strana
METAR-TAF:

METAR-TAF

Letiště :

Douglas Municipal Airport

Douglas, Georgie, Spojené státy americké

zeměpisná šířka: 31-28-36N, zeměpisná délka: 082-51-37W, výška: 78 m

Aktuální stav počasí

Zpráva byla vytvořena před 19 minutami, v 01:15 UTC
Jihojihozápadní vítr 4 kt
Teplota 19°C
Vlhkost vzduchu 68%
Tlak 1022 hPa
Viditelnost: 16.1 km
Polojasno ve výšce 4300 ft
Oblačno až skoro zataženo ve výšce 11000 ft

METAR: KDQH 190115Z AUTO 21004KT 10SM SCT043 BKN110 19/13 A3019 RMK AO2 T01870132

Čas: 20:34 (01:34 UTC)


TAF: chybějící

Stav a předpovědi počasí z více než 4 000 letišť (zprávy METAR a TAF).

Červené a žluté tečky na mapě představují dostupné meteorologické stanice.

Když kurzor umístíte na tečku, zobrazí se název stanice.

Pak kliknutím zobrazíte stav a předpověď počasí.

Chcete-li změnit mapu, kliknutím na zelené tlačítko se znaménkem +mapu přiblížíte, kliknutím na zelené tlačítko se znaménkem – mapu oddálíte a kliknutím na zelené šipky přejdete na sousední mapy.


METAR-TAF: